This demonstration page uses our WeatherBlox Daily Observations layout. Learn more.

Left ArrowRight Arrow

Hourly Observations for August 18, 2021

Temp ( °F °C ) Dew Point ( °F °C ) Humidity (%) Winds ( mph kmh ) Pressure ( in mb ) Visibility ( mi km ) Precip ( " mm )
12:51 am 00:51 Mostly Cloudy 77 25 65 18.3 66 66 NW 6 9 29.79 1009 10 16 0.00 0.00
1:51 am 01:51 Clear 75 23.9 66 18.9 74 74 W 3 6 29.78 1009 10 16 0.00 0.00
2:51 am 02:51 Clear 73 22.8 67 19.4 81 81 Calm 29.79 1009 10 16 0.00 0.00
3:51 am 03:51 Clear 72 22.2 67 19.4 84 84 Calm 29.80 1009 10 16 0.00 0.00
4:51 am 04:51 Clear 71 21.7 67 19.4 87 87 ENE 5 7 29.80 1009 10 16 0.00 0.00
5:51 am 05:51 Mostly Sunny 71 21.7 67 19.4 87 87 E 5 7 29.82 1010 10 16 0.00 0.00
6:51 am 06:51 Cloudy 74 23.3 67 19.4 79 79 Calm 29.83 1010 10 16 0.00 0.00
7:51 am 07:51 Mostly Cloudy 77 25 66 18.9 69 69 E 5 7 29.84 1010 10 16 0.00 0.00
8:51 am 08:51 Sunny 81 27.2 66 18.9 61 61 Calm 29.84 1010 10 16 0.00 0.00
9:51 am 09:51 Partly Cloudy 84 28.9 67 19.4 57 57 VRB 5 7 29.84 1011 10 16 0.00 0.00
10:51 am 10:51 Partly Cloudy 86 30 67 19.4 53 53 N 5 7 29.83 1010 10 16 0.00 0.00
11:24 am 11:24 Mostly Cloudy with Nearby Thunderstorms 86 30 64 17.8 48 48 WNW 10 17 29.75 1007 10 16 0.00 0.00
11:32 am 11:32 Cloudy with Thunderstorms 84 28.9 68 20 59 59 WNW 28 44 29.77 1008 10 16 0.00 0.00
11:47 am 11:47 Mostly Cloudy with Nearby Thunderstorms 79 26 68 20 70 70 WNW 26 43 29.81 1010 10 16 0.00 0.00
11:51 am 11:51 Mostly Cloudy with Nearby Thunderstorms 76 24.4 67 19.4 74 74 WNW 26 43 29.87 1011 10 16 0.00 0.00
12:00 pm 12:00 Mostly Cloudy with Thunderstorms 75 23.9 68 20 79 79 NW 22 35 29.83 1010 6 10 0.00 0.00
12:32 pm 12:32 Mostly Cloudy 76 24.4 70 21.1 82 82 NNW 14 22 29.81 1009 10 16 0.04 1.02
12:51 pm 12:51 Mostly Sunny 81 27.2 69 20.6 67 67 NW 12 19 29.83 1010 10 16 0.04 1.02
1:51 pm 13:51 Sunny 81 27.2 72 22.2 74 74 W 14 22 29.83 1010 10 16 0.00 0.00
2:51 pm 14:51 Mostly Sunny 84 28.9 69 20.6 61 61 W 9 15 29.80 1009 10 16 0.00 0.00
3:51 pm 15:51 Sunny 87 30.6 66 18.9 50 50 NW 13 20 29.78 1008 10 16 0.00 0.00
4:51 pm 16:51 Sunny 86 30 67 19.4 53 53 W 13 20 29.77 1008 10 16 0.00 0.00
5:51 pm 17:51 Sunny 86 30 64 17.8 48 48 NW 10 17 29.77 1008 10 16 0.00 0.00
6:51 pm 18:51 Mostly Cloudy 73 22.8 66 18.9 79 79 WNW 18 30 29.82 1010 10 16 0.00 0.00
7:07 pm 19:07 Cloudy with Nearby Thunderstorms 72 22.2 65 18.3 79 79 W 18 30 29.81 1010 10 16 0.00 0.00
7:46 pm 19:46 Cloudy with Thunderstorms 68 20 64 18 88 88 WNW 29 46 29.86 1011 7 11 0.00 0.00
7:51 pm 19:51 Windy with Storms Likely 68 20 65 18.3 90 90 NW 26 43 29.87 1011 7 11 0.03 0.76
8:02 pm 20:02 Mostly Clear with Thunderstorms N/A N/A N/A undefined N/A N/A N/A 0.00 0.00
8:15 pm 20:15 Mostly Clear with Nearby Thunderstorms 67 19.4 65 18.3 93 93 WNW 10 17 29.88 1012 10 16 0.00 0.00
8:31 pm 20:31 Partly Cloudy 68 20 66 18.9 93 93 W 9 15 29.88 1012 10 16 0.00 0.00
8:51 pm 20:51 Partly Cloudy 67 19.4 66 18.9 97 97 W 6 9 29.89 1012 10 16 0.00 0.00
9:51 pm 21:51 Clear 68 20 66 18.9 93 93 Calm 29.88 1012 10 16 0.00 0.00
10:51 pm 22:51 Mostly Clear 69 20.6 66 18.9 90 90 Calm 29.88 1012 10 16 0.00 0.00
11:51 pm 23:51 Clear 68 20 67 19.4 96 96 Calm 29.90 1012 10 16 0.00 0.00

Powered by AerisWeather